Knox, IN

11:46 AM CDT on July 23, 2017 (GMT -0500)
Starke County

Weather History for KOXI - September, 2012

Change the Weather History Date:

Tuesday, September 18, 2012

  Actual Average (KRCR) Record (KRCR)
Temperature  
Mean Temperature 52 °F -  
Max Temperature 93 °F 74 °F 82 °F (2016)
Min Temperature 42 °F 51 °F 44 °F (2014)
Degree Days  
Heating Degree Days 13    
Growing Degree Days 2 (Base 50)    
Moisture  
Dew Point 46 °F    
Average Humidity 74    
Maximum Humidity 98    
Minimum Humidity 36    
Precipitation  
Precipitation 0.00 in - - ()
Sea Level Pressure  
Sea Level Pressure 29.86 in    
Wind  
Wind Speed 10 mph (NW)    
Max Wind Speed 22 mph    
Max Gust Speed 33 mph    
Visibility 10 miles    
Events      
Averages and records for this station are not official NWS values.
T = Trace of Precipitation, MM = Missing Value Source: NWS Daily Summary

Daily Weather History Graph

Daily Weather History Graph

Search for Another Location

Airport or City:

Trip Planner

Search our weather history database for the weather conditions in past years. The results will help you decide how hot, cold, wet, or windy it might be!

Date:

Astronomy

Sep. 18, 2012 Rise Set
Actual Time 6:30 AM CDT 6:49 PM CDT
Civil Twilight 6:02 AM CDT 7:17 PM CDT
Nautical Twilight 5:30 AM CDT 7:49 PM CDT
Astronomical Twilight 4:57 AM CDT 8:23 PM CDT
Moon 9:32 AM CDT (9/18) 8:09 PM CDT (9/18)
Length of Visible Light 13h 14m
Length of Day
12h 19m
Waxing Crescent, 9% of the Moon is Illuminated
Sep 18
Waxing Crescent
Sep 22
First Quarter
Sep 29
Full
Oct 8
Last Quarter
Oct 15
New

Hourly Weather History & Observations

Time (CDT) Temp. Windchill Dew Point Humidity Pressure Visibility Wind Dir Wind Speed Gust Speed Precip Events Conditions
12:15 AM 62.2 °F - 60.8 °F 95% 29.74 in 10.0 mi NW 6.9 mph - N/A   Overcast
12:35 AM 61.9 °F - 60.4 °F 95% 29.74 in 10.0 mi North 11.5 mph 20.7 mph N/A   Overcast
12:55 AM 60.8 °F - 59.4 °F 95% 29.74 in 10.0 mi NNW 11.5 mph - N/A   Overcast
1:15 AM 60.4 °F - 58.8 °F 94% 29.74 in 10.0 mi North 9.2 mph - N/A   Overcast
1:35 AM 60.1 °F - 58.3 °F 94% 29.73 in 10.0 mi North 8.1 mph - N/A   Overcast
1:55 AM 59.9 °F - 58.3 °F 94% 29.73 in 10.0 mi NNW 8.1 mph - N/A   Overcast
2:15 AM 59.4 °F - 58.1 °F 96% 29.73 in 10.0 mi NNW 4.6 mph - N/A   Overcast
2:35 AM 59.0 °F - 58.1 °F 97% 29.73 in 5.0 mi NNW 9.2 mph - N/A   Overcast
2:55 AM 58.8 °F - 57.9 °F 97% 29.72 in 7.0 mi NNW 10.4 mph - N/A   Overcast
3:15 AM 58.3 °F - 57.6 °F 97% 29.72 in 7.0 mi NNW 11.5 mph - N/A   Overcast
4:15 AM 57.6 °F - 56.8 °F 97% 29.72 in 7.0 mi NNW 8.1 mph - N/A   Overcast
4:35 AM 57.4 °F - 56.7 °F 97% 29.73 in 10.0 mi NNW 10.4 mph - N/A   Overcast
4:55 AM 57.2 °F - 56.5 °F 97% 29.73 in 10.0 mi NNW 10.4 mph - N/A   Overcast
5:15 AM 57.2 °F - 56.3 °F 97% 29.73 in 10.0 mi NNW 9.2 mph - N/A   Overcast
5:35 AM 56.5 °F - 55.9 °F 98% 29.74 in 10.0 mi NW 9.2 mph - N/A   Overcast
5:55 AM 56.1 °F - 55.2 °F 97% 29.73 in 10.0 mi NW 8.1 mph - N/A   Overcast
6:15 AM 56.1 °F - 54.9 °F 96% 29.74 in 10.0 mi NW 6.9 mph - N/A   Overcast
6:35 AM 56.3 °F - 54.7 °F 94% 29.75 in 10.0 mi NW 11.5 mph 16.1 mph N/A   Overcast
7:15 AM 55.6 °F - 53.1 °F 91% 29.76 in 10.0 mi NW 8.1 mph 16.1 mph N/A   Overcast
7:35 AM 55.8 °F - 52.5 °F 89% 29.77 in 10.0 mi NW 13.8 mph 20.7 mph N/A   Overcast
7:55 AM 55.6 °F - 52.0 °F 88% 29.78 in 10.0 mi NW 6.9 mph - N/A   Overcast
8:15 AM 55.8 °F - 52.0 °F 87% 29.78 in 10.0 mi NW 8.1 mph - N/A   Overcast
8:35 AM 56.3 °F - 51.4 °F 84% 29.78 in 10.0 mi NW 13.8 mph 21.9 mph N/A   Overcast
9:15 AM 56.5 °F - 50.0 °F 79% 29.79 in 10.0 mi NW 16.1 mph 23.0 mph N/A   Scattered Clouds
9:35 AM 57.7 °F - 49.8 °F 75% 29.81 in 10.0 mi NNW 17.3 mph 24.2 mph N/A   Mostly Cloudy
10:15 AM 58.8 °F - 49.3 °F 71% 29.82 in 10.0 mi NW 11.5 mph 26.5 mph N/A   Mostly Cloudy
10:35 AM 59.2 °F - 49.5 °F 70% 29.83 in 10.0 mi NW 19.6 mph 33.4 mph N/A   Mostly Cloudy
11:15 AM 55.2 °F - 52.3 °F 90% 29.84 in 4.0 mi NW 9.2 mph 20.7 mph N/A   Overcast
11:35 AM 55.9 °F - 52.9 °F 89% 29.85 in 10.0 mi NW 11.5 mph 24.2 mph N/A   Overcast
11:55 AM 57.7 °F - 51.1 °F 78% 29.84 in 10.0 mi NW 21.9 mph 28.8 mph N/A   Scattered Clouds
12:15 PM 59.7 °F - 49.6 °F 69% 29.85 in 10.0 mi NW 19.6 mph 27.6 mph N/A   Scattered Clouds
12:35 PM 61.0 °F - 48.2 °F 63% 29.85 in 10.0 mi NNW 17.3 mph 28.8 mph N/A   Scattered Clouds
12:55 PM 60.1 °F - 45.1 °F 58% 29.86 in 10.0 mi NW 20.7 mph 25.3 mph N/A   Scattered Clouds
1:15 PM 61.5 °F - 43.7 °F 52% 29.86 in 10.0 mi NNW 20.7 mph 29.9 mph N/A   Clear
1:35 PM 60.4 °F - 41.5 °F 50% 29.87 in 10.0 mi NW 18.4 mph 27.6 mph N/A   Scattered Clouds
1:55 PM 60.4 °F - 39.6 °F 46% 29.87 in 10.0 mi NNW 19.6 mph 29.9 mph N/A   Scattered Clouds
2:15 PM 61.5 °F - 37.6 °F 41% 29.87 in 10.0 mi NNW 19.6 mph 24.2 mph N/A   Scattered Clouds
2:35 PM 60.4 °F - 36.5 °F 41% 29.88 in 10.0 mi NNW 17.3 mph 25.3 mph N/A   Scattered Clouds
2:55 PM 60.3 °F - 35.1 °F 39% 29.88 in 10.0 mi NNW 18.4 mph 33.4 mph N/A   Clear
3:15 PM 61.3 °F - 35.1 °F 37% 29.89 in 10.0 mi NNW 16.1 mph 27.6 mph N/A   Scattered Clouds
3:35 PM 61.0 °F - 34.7 °F 37% 29.91 in 10.0 mi NW 20.7 mph 28.8 mph N/A   Scattered Clouds
3:55 PM 60.1 °F - 33.3 °F 36% 29.92 in 10.0 mi NW 17.3 mph 24.2 mph N/A   Scattered Clouds
4:15 PM 59.9 °F - 32.7 °F 36% 29.93 in 10.0 mi NW 13.8 mph 23.0 mph N/A   Clear
4:35 PM 58.6 °F - 33.8 °F 39% 29.93 in 10.0 mi NNW 12.7 mph 21.9 mph N/A   Mostly Cloudy
5:15 PM 59.2 °F - 32.7 °F 37% 29.93 in 10.0 mi NW 11.5 mph 16.1 mph N/A   Scattered Clouds
5:35 PM 57.4 °F - 32.7 °F 39% 29.94 in 10.0 mi NW 10.4 mph - N/A   Mostly Cloudy
5:55 PM 56.7 °F - 33.8 °F 42% 29.94 in 10.0 mi NW 8.1 mph - N/A   Mostly Cloudy
6:15 PM 56.8 °F - 34.5 °F 43% 29.95 in 10.0 mi NW 5.8 mph - N/A   Scattered Clouds
6:35 PM 55.6 °F - 35.4 °F 47% 29.95 in 10.0 mi NW 4.6 mph - N/A   Mostly Cloudy
6:55 PM 54.5 °F - 36.5 °F 51% 29.96 in 10.0 mi WNW 3.5 mph - N/A   Mostly Cloudy
7:15 PM 52.7 °F - 37.4 °F 56% 29.96 in 10.0 mi West 3.5 mph - N/A   Scattered Clouds
7:35 PM 51.6 °F - 37.8 °F 59% 29.96 in 10.0 mi West 4.6 mph - N/A   Mostly Cloudy
7:55 PM 52.2 °F - 37.6 °F 58% 29.98 in 10.0 mi Calm Calm - N/A   Overcast
8:35 PM 49.8 °F - 41.9 °F 74% 29.99 in 10.0 mi WSW 3.5 mph - N/A   Mostly Cloudy
8:55 PM 47.7 °F - 43.5 °F 86% 30.00 in 10.0 mi SW 4.6 mph - N/A   Scattered Clouds
9:15 PM 46.2 °F 44.1 °F 41.9 °F 85% 30.00 in 10.0 mi WSW 4.6 mph - N/A   Scattered Clouds
9:35 PM 45.5 °F 43.2 °F 40.8 °F 84% 30.01 in 10.0 mi SW 4.6 mph - N/A   Scattered Clouds
9:55 PM 43.2 °F - 40.3 °F 90% 30.01 in 10.0 mi Calm Calm - N/A   Clear
10:15 PM 42.3 °F - 39.9 °F 91% 30.01 in 10.0 mi Calm Calm - N/A   Clear
10:35 PM 42.1 °F 40.2 °F 40.3 °F 93% 30.02 in 10.0 mi SW 3.5 mph - N/A   Scattered Clouds
10:55 PM 42.8 °F 41.1 °F 41.0 °F 93% 30.02 in 10.0 mi SW 3.5 mph - N/A   Overcast
11:15 PM 44.6 °F 43.1 °F 42.3 °F 91% 30.02 in 10.0 mi SW 3.5 mph - N/A   Overcast
11:35 PM 45.3 °F 43.0 °F 41.9 °F 88% 30.03 in 10.0 mi SW 4.6 mph - N/A   Mostly Cloudy
11:55 PM 44.8 °F 43.3 °F 41.9 °F 90% 30.03 in 10.0 mi WSW 3.5 mph - N/A   Mostly Cloudy